Track METEOR 1-27 now! 10-day predictions METEOR 1-27 is classified as:
1 9903U 77024A 21103.17451223 -.00000046 00000-0 -33861-4 0 9990 2 9903 81.2535 168.9835 0037004 306.9007 52.8774 14.08277086261562